{"data":{"norad_id":68904,"epoch":"2026-05-25T02:07:54.873120Z","epoch_age_seconds":71407,"freshness":"FRESH","line1":"1 68904U 26097K   26145.08882955  .00078962  00000+0  14387-2 0  9990","line2":"2 68904  97.2855 340.8959 0001676  97.6477 262.4964 15.49193905  3948","mean_motion":15.49193905,"eccentricity":0.0001676,"inclination_deg":97.2855,"raan_deg":340.8959,"arg_perigee_deg":97.6477,"mean_anomaly_deg":262.4964,"bstar":0.0014387,"rev_number":394,"period_min":92.951566317968,"perigee_km":417.94370678074,"apogee_km":420.2221348982,"semimajor_km":6797.2199208395,"source":"CELESTRAK","updated_at":"2026-05-25T13:38:22.068120Z"}}